User: anonymous   Login
Location: Franzen
(48.6167°N, 15.3833°E)
Time: 01:01:26
(UTC+00:00)
Language:

Cosmos 1486 Rocket - Orbit

View from above orbital plane
View from above orbital plane
View from above satellite
View from above satellite

Ground track
Ground track

The orbit data is extracted from the following two-line orbital elements,

1 14241U 83079B   21169.22768138  .00000021  00000-0  16209-4 0  9990
2 14241  74.0605  84.3955 0016906 157.0859 203.1052 14.36223741982417
Epoch (UTC): 18 June 2021 05:27:51
Eccentricity: 0.0016906
inclination: 74.0605°
perigee height: 759 km
apogee height: 783 km
right ascension of ascending node: 84.3955°
argument of perigee: 157.0859°
revolutions per day: 14.36223741
mean anomaly at epoch: 203.1052°
orbit number at epoch: 98241

The dashed part of the orbit path shows where the satellite is in the earth's shadow,  

DLR